Location: Dąbrowa Miętka
(51.3714°N, 18.6370°E)
Time: 11:08:00
(UTC+02:00)

ISS - Pass Details

Date: 26 January 2019
Orbit: 411 x 421 km, 51.6° (Epoch: 16 October)

Event Time Altitude Azimuth Distance (km) Brightness Sun altitude
Rises 19:06:48 0° 256° (WSW) 2,370 1.3 -25.1°
Reaches altitude 10° 19:08:54 10° 255° (WSW) 1,508 0.0 -25.5°
Enters shadow 19:10:42 29° 253° (WSW) 801 -1.8 -25.7°
